Regional Weather Roundup
Issued by NWS

Home | Current Version | Previous Version | Graphics & Text | Print | Product List | Glossary On
Versions: 1 2 3 4 5 6 7 8 9 10 11 12 13 14 15 16 17 18 19 20 21 22 23 24 25 26 27 28 29 30 31 32 33 34 35 36 37 38 39 40 41 42 43 44 45 46 47 48 49 50
712
ASUS45 KSLC 120810
RWRUT

UTAH REGIONAL WEATHER ROUNDUP
NATIONAL WEATHER SERVICE SALT LAKE CITY UT
100 AM MST FRI FEB 12 2016

UTZ001>011-023>025-120900-

NORTHERN UTAH

CITY           SKY/WX    TMP DP  RH WIND       PRES   REMARKS
BRIGHAM CITY   CLOUDY    26  24  93 SE3       30.46S
HILL AFB       FOG       26  24  91 S1        30.42F VSB 1/4
LOGAN          FOG       22  22 100 W5        30.44S VSB 1/4 WCI  16
OGDEN          FOG       26  26 100 CALM      30.43S VSB 1/4
PROVO AIRPORT    N/A     16  14  93 CALM      30.43S VSB<1/4
SALT LAKE CITY CLOUDY    30  28  92 N5        30.45R FOG     WCI  25
VERNAL         CLOUDY    20  16  84 W5        30.42R FOG     WCI  13
WENDOVER       CLOUDY    30  25  80 CALM      30.43S
HEBER CITY     PTCLDY    16  12  86 CALM      30.39S
WEST JORDAN    CLOUDY    28  28 100 N5        30.44S VSB 1   WCI  23

$$

UTZ012>022-026-027-120900-

SOUTHERN/CENTRAL UTAH

CITY           SKY/WX    TMP DP  RH WIND       PRES   REMARKS
BLANDING       PTCLDY    32  22  67 CALM      30.46R
BRYCE CANYON   PTCLDY    25  15  66 W14       30.44S WCI  13
CEDAR CITY     PTCLDY    21  19  92 E3        30.36F
DELTA          CLOUDY    16  15  94 NE3       30.43S VSB<1/4
HANKSVILLE     MOCLDY    30  30 100 CALM      30.42S
MILFORD        FOG       11   8  88 SW8       30.40R VSB 3/4 WCI  -1
MOAB/CYNLANDS  MOCLDY    28  27  96 CALM      30.39F
PRICE          PTCLDY    30  21  69 E5        30.38S WCI  25
ST GEORGE      MOSUNNY   45  23  42 S5        30.32S
KANAB          PTCLDY    32  28  86 N3        30.39S

$$

REGIONAL REPORTS     COLORADO/ARIZONA

CITY           SKY/WX    TMP DP  RH WIND       PRES   REMARKS
CRAIG, CO      CLOUDY    15  11  83 CALM      30.40F
GRAND JUNCTION CLOUDY    27  24  89 E9        30.41S WCI  18
RIFLE          CLOUDY    20  13  74 CALM      30.43S
MONTROSE       CLOUDY    25  18  74 SE6       30.44F WCI  18
CORTEZ         CLOUDY    24  19  81 NE8       30.40S WCI  15
PAGE, AZ       MOCLDY    39  29  67 CALM      30.36S
GRAND CANYON   MOCLDY    25  19  78 E3        30.40F
KINGMAN        CLEAR     38  25  59 CALM      30.26S
FLAGSTAFF      PTCLDY    25  19  78 CALM      30.41F

$$

REGIONAL REPORTS    NEVADA/IDAHO/WYOMING

CITY           SKY/WX    TMP DP  RH WIND       PRES   REMARKS
LAS VEGAS, NV  CLEAR     53  22  29 SW3       30.19S
ELY            MOCLDY    24  16  71 S14       30.38S WCI  12
ELKO           CLOUDY    17  14  88 NE7       30.37S WCI   8
POCATELLO, ID  CLOUDY    27  23  85 CALM      30.37R
BURLEY         CLEAR     30  28  92 NE9       30.30F WCI  22
EVANSTON, WY   CLOUDY    36  15  42 CALM      30.38S
ROCK SPRINGS   CLOUDY    34  19  54 W13       30.35S WCI  25

$$




USA.gov is the U.S. government's official web portal to all federal, state and local government web resources and services.